Greenville, ME

12:55 AM EST on December 10, 2019 (GMT -0500)
Greenville

Weather History for KGNR - August, 2019

Change the Weather History Date:

Friday, August 2, 2019

  Actual Average (WUND) Record (WUND)
Temperature  
Mean Temperature 67 °F -  
Max Temperature 80 °F - - (-1)
Min Temperature 55 °F - - (-1)
Cooling Degree Days 2    
Growing Degree Days 17 (Base 50)    
Moisture  
Dew Point 51 °F    
Average Humidity 55    
Maximum Humidity 78    
Minimum Humidity 34    
Precipitation  
Precipitation 0.00 in - - ()
Sea Level Pressure  
Sea Level Pressure 30.08 in    
Wind  
Wind Speed 4 mph (NNW)    
Max Wind Speed 10 mph    
Max Gust Speed 18 mph    
Averages and records for this station are not official NWS values.
T = Trace of Precipitation, MM = Missing Value Source: NWS Daily Summary

Daily Weather History Graph

Daily Weather History Graph

Search for Another Location

Airport or City:

Astronomy

Aug. 02, 2019 Rise Set
Actual Time 5:23 AM EDT 8:05 PM EDT
Civil Twilight 4:49 AM EDT 8:39 PM EDT
Nautical Twilight 4:06 AM EDT 9:21 PM EDT
Astronomical Twilight 3:16 AM EDT 10:11 PM EDT
Moon 7:00 AM EDT (8/2) 9:26 PM EDT (8/2)
Length of Visible Light 15h 49m
Length of Day
14h 42m
Waxing Crescent, 4% of the Moon is Illuminated
Aug 2
Waxing Crescent
Aug 7
First Quarter
Aug 15
Full
Aug 23
Last Quarter
Aug 30
New

Hourly Weather History & Observations

Time (EDT) Temp. Dew Point Humidity Pressure Visibility Wind Dir Wind Speed Gust Speed Precip Events Conditions
12:56 AM 61.0 °F 48.9 °F 64% 30.10 in - Variable 3.5 mph - N/A   Unknown
1:56 AM 59.0 °F 52.0 °F 78% 30.09 in - NE 3.5 mph - N/A   Unknown
2:56 AM 59.0 °F 51.1 °F 75% 30.09 in - NE 5.8 mph - N/A   Unknown
3:56 AM 60.1 °F 48.0 °F 64% 30.09 in - NW 4.6 mph - N/A   Unknown
4:56 AM 55.9 °F 48.9 °F 77% 30.09 in - Calm Calm - N/A   Unknown
5:56 AM 57.9 °F 48.9 °F 72% 30.10 in - NNE 3.5 mph - N/A   Unknown
6:56 AM 64.0 °F 52.0 °F 65% 30.11 in - Calm Calm - N/A   Unknown
7:56 AM 68.0 °F 51.1 °F 55% 30.12 in - Calm Calm - N/A   Unknown
8:56 AM 69.1 °F 52.0 °F 54% 30.11 in - Calm Calm - N/A   Unknown
9:56 AM 73.0 °F 52.0 °F 48% 30.10 in - North 6.9 mph - N/A   Unknown
10:56 AM 75.0 °F 53.1 °F 46% 30.11 in - Variable 4.6 mph - N/A   Unknown
11:56 AM 78.1 °F 50.0 °F 37% 30.09 in - NW 9.2 mph - N/A   Unknown
12:56 PM 79.0 °F 48.0 °F 34% 30.07 in - WNW 10.4 mph 18.4 mph N/A   Unknown
1:56 PM 79.0 °F 48.9 °F 35% 30.06 in - Variable 5.8 mph - N/A   Unknown
2:56 PM 75.9 °F 50.0 °F 40% 30.06 in - North 8.1 mph - N/A   Unknown
3:56 PM 78.1 °F 50.0 °F 37% 30.04 in - NNW 9.2 mph - N/A   Unknown
4:56 PM 75.9 °F 50.0 °F 40% 30.05 in - NW 8.1 mph - N/A   Unknown
5:56 PM 73.9 °F 53.1 °F 48% 30.05 in - NNW 4.6 mph - N/A   Unknown
6:56 PM 73.9 °F 54.0 °F 50% 30.05 in - NW 4.6 mph - N/A   Unknown
7:56 PM 70.0 °F 53.1 °F 55% 30.06 in - WNW 4.6 mph - N/A   Unknown
8:56 PM 69.1 °F 50.0 °F 51% 30.07 in - WNW 5.8 mph - N/A   Unknown
9:56 PM 64.9 °F 51.1 °F 61% 30.06 in - WNW 3.5 mph - N/A   Unknown
10:56 PM 64.9 °F 51.1 °F 61% 30.06 in - Calm Calm - N/A   Unknown
11:56 PM 62.1 °F 50.0 °F 65% 30.06 in - Calm Calm - N/A   Unknown